Theta_e
353 353 352 352 351 351 351 354 353 354 354 353 352 352 352 352 352 351 350 350 347 342 342 342 345 346 342 344 342 341 343 343 340 340 341 340 340 339 339 343 343 342 341
352 353 353 353 352 354 353 353 353 353 353 353 353 353 350 348 348 347 348 348 349 348 345 347 341 341 341 341 343 341 341 344 341 341 340 342 340 340 338 337 338 339 341
352 354 354 351 353 349 352 350 352 350 354 354 353 351 347 348 348 346 346 348 348 347 347 347 342 342 341 341 343 341 341 342 342 343 338 342 340 338 337 336 336 337 337
354 355 352 352 347 349 347 350 347 351 353 353 352 351 352 351 350 350 349 348 348 348 346 343 343 341 340 341 345 345 342 342 341 343 340 339 341 337 337 337 336 336 338
353 354 354 353 351 349 352 354 352 351 353 352 351 351 350 350 352 351 350 349 347 345 338 339 336 337 338 340 341 345 346 344 340 339 341 336 338 338 337 337 337 336 336
353 355 352 353 354 353 352 354 352 353 355 351 353 353 352 352 352 350 350 349 346 343 336 335 336 339 337 341 343 343 340 341 342 342 337 336 337 339 337 336 337 336 336
354 354 354 354 353 355 354 354 354 355 355 354 353 354 353 351 349 348 349 350 347 341 336 334 340 337 338 339 340 341 341 342 341 341 339 336 336 334 336 338 335 336 337
353 353 353 351 352 355 355 355 355 355 355 354 353 350 351 349 347 348 348 349 348 342 339 340 337 337 336 335 337 338 340 341 341 341 340 340 339 336 336 338 336 336 337
354 354 353 353 352 353 356 355 355 354 355 353 353 353 353 351 345 348 347 346 347 344 341 339 337 337 336 336 336 335 336 336 337 340 341 341 340 338 336 340 340 334 337
355 355 353 353 353 354 354 355 355 354 356 354 355 353 352 349 352 354 345 344 342 341 338 334 336 336 336 335 336 336 336 336 337 337 338 340 340 339 338 335 333 331 335
355 356 354 353 351 354 354 355 355 356 356 355 353 354 354 351 349 348 352 342 339 337 335 335 337 335 335 335 334 334 337 336 338 338 338 339 340 338 336 334 335 332 333
353 356 354 353 353 353 353 355 357 356 353 353 353 354 353 352 350 348 347 342 338 337 336 337 335 335 334 332 330 333 336 337 339 338 337 336 336 336 336 336 337 334 333
350 353 357 354 354 354 355 356 357 355 353 353 354 356 356 355 353 351 347 340 337 337 336 336 335 333 330 328 332 334 337 336 337 338 336 335 334 333 333 333 333 334 333
351 351 355 355 356 354 355 358 356 351 354 354 356 358 356 356 354 353 350 341 339 338 336 335 333 330 327 327 332 334 335 336 336 336 334 333 333 333 333 332 332 332 334
352 354 355 356 354 354 358 353 351 351 354 354 356 355 356 355 355 353 346 345 339 341 338 335 333 328 325 326 330 332 332 333 331 333 331 327 328 328 330 331 330 331 333
349 351 356 356 354 352 352 351 350 353 355 356 355 353 355 353 353 350 346 344 339 338 339 334 330 327 324 326 329 330 331 331 331 331 330 330 331 330 328 328 327 329 331
347 346 347 352 354 354 351 352 353 355 356 356 354 353 351 348 350 345 345 342 339 336 334 331 329 326 324 326 327 328 329 329 330 330 329 328 327 325 325 328 325 328 327
350 350 349 349 350 352 352 355 354 358 358 355 354 352 349 345 348 345 344 342 337 335 332 329 327 324 323 324 326 326 326 326 327 327 329 328 326 325 325 325 326 324 323
351 351 353 351 349 352 356 356 355 358 358 356 354 350 348 346 346 345 344 340 335 334 331 328 326 324 322 321 321 321 322 324 324 325 326 326 326 325 324 325 325 327 329
353 353 355 353 351 356 358 356 355 358 358 355 353 350 346 345 346 346 343 340 335 332 329 327 325 325 325 324 321 319 320 320 320 322 323 324 324 324 324 325 324 330 332
355 355 355 355 354 352 351 352 354 359 358 355 352 349 346 345 345 345 343 339 334 331 328 326 325 324 325 325 324 322 320 318 318 319 322 323 324 324 323 323 324 328 332
356 356 356 355 354 354 352 352 355 359 357 354 350 348 345 345 345 344 343 341 337 332 328 327 326 325 325 325 324 323 320 321 323 318 319 320 321 323 324 324 324 323 327
357 357 356 356 356 355 353 354 357 360 357 353 350 348 344 343 343 343 341 339 335 332 331 329 328 326 325 326 325 324 323 322 323 320 319 319 319 321 322 323 323 324 324
350 354 357 357 357 356 355 355 357 360 354 352 350 347 343 342 342 342 340 336 333 332 331 329 329 328 326 325 325 325 325 325 325 321 324 325 324 324 323 323 323 324 324
344 350 355 357 357 357 357 356 358 355 351 350 349 345 342 341 342 341 339 334 333 332 331 331 332 331 329 326 327 326 326 327 325 323 325 325 325 326 325 325 324 323 325
346 351 355 357 357 357 356 356 353 350 350 348 346 345 342 340 342 341 337 334 333 333 332 332 332 333 331 329 327 328 327 327 325 326 325 326 326 326 327 326 325 324 323
Wind_Speed
11 11 11 11 10 9 10 11 10 13 15 16 18 19 21 22 23 23 23 22 22 23 22 18 14 13 16 16 18 23 25 26 27 24 23 22 22 21 20 18 16 16 16
10 11 12 11 10 10 10 10 9 13 16 15 16 17 18 19 19 19 21 21 20 20 21 22 20 16 17 17 19 23 25 29 28 25 24 23 24 24 23 21 18 17 17
11 12 13 13 13 12 6 10 10 14 12 11 15 16 15 17 18 19 19 20 18 17 17 17 14 20 22 23 22 21 20 26 24 26 25 23 24 21 22 21 19 18 18
9 10 11 12 11 8 8 8 9 11 11 12 14 16 18 18 18 19 18 17 17 13 10 9 11 17 23 24 21 19 22 24 25 25 25 23 25 26 23 21 22 19 18
11 10 10 12 9 7 8 8 8 10 12 13 16 17 15 17 19 19 18 16 14 11 9 11 15 20 25 24 21 16 18 19 23 25 27 26 23 27 26 26 25 20 18
10 11 9 11 11 10 9 9 10 12 14 14 16 17 17 17 18 15 13 14 13 10 11 15 21 24 18 15 10 9 9 13 18 25 30 30 27 27 27 28 27 26 23
13 13 12 13 11 12 11 11 13 15 17 15 17 17 14 13 11 10 13 14 13 12 13 17 21 13 12 10 8 7 11 14 17 21 26 29 31 30 27 32 31 27 27
7 9 12 12 12 12 11 11 13 16 14 14 6 6 3 5 3 16 14 13 13 14 15 18 13 8 9 9 8 5 2 8 14 18 22 25 32 36 34 33 31 28 29
8 11 13 14 14 15 13 11 13 13 13 16 9 4 2 2 5 5 9 9 12 15 16 14 8 8 10 10 9 8 7 8 10 14 18 19 26 32 34 31 34 29 30
13 14 14 14 14 16 17 14 16 16 14 13 13 6 11 8 2 4 4 6 5 6 9 7 5 7 9 11 11 10 9 9 11 13 15 19 25 29 32 36 30 33 26
8 13 13 15 15 17 17 18 15 16 13 13 12 12 10 7 6 6 3 2 2 4 3 3 5 7 9 10 11 11 10 7 6 9 11 16 13 24 28 29 26 35 30
14 13 8 13 18 19 18 17 13 15 12 12 11 10 9 5 5 5 3 0 1 1 2 4 6 7 9 12 12 12 9 4 5 9 12 15 23 20 23 21 16 33 29
16 12 10 11 16 20 19 16 14 14 11 12 10 11 10 11 11 9 5 1 1 2 2 4 7 9 11 12 11 10 7 1 8 14 12 15 17 17 16 16 18 21 24
18 13 8 7 8 8 9 12 13 13 11 11 11 12 12 11 10 8 4 4 2 2 1 3 7 9 11 11 10 8 11 8 8 18 14 11 11 13 14 16 15 21 24
19 16 15 14 12 12 12 12 13 13 14 12 9 10 9 9 7 6 5 5 4 2 1 2 2 8 10 10 10 8 7 6 9 11 13 12 9 10 12 18 15 17 22
26 23 19 17 15 12 13 13 13 14 15 13 10 8 7 8 6 5 2 2 6 3 2 2 3 7 9 10 11 11 11 10 8 9 11 13 16 14 12 16 15 16 16
27 27 26 20 16 16 15 14 14 14 15 10 8 6 7 7 5 2 2 2 3 5 6 4 6 7 11 12 13 12 11 11 9 8 9 12 12 12 11 12 13 19 9
29 28 27 25 23 20 19 17 14 15 13 11 7 6 6 6 1 1 2 2 3 6 9 10 8 6 10 11 13 13 13 12 11 8 8 12 13 11 11 12 10 12 12
30 27 25 25 24 23 22 18 17 17 15 10 8 5 5 3 2 3 3 4 6 8 13 15 7 9 10 10 11 11 12 12 12 10 8 10 10 7 7 10 9 11 13
24 25 26 26 26 24 22 21 19 19 15 11 7 5 4 1 3 5 6 6 11 14 16 15 13 10 8 8 8 9 9 8 9 8 8 9 7 8 10 10 8 8 11
20 23 23 26 28 28 29 26 22 20 15 11 9 7 4 3 5 6 6 10 14 18 18 15 10 7 6 7 7 6 7 6 7 6 6 5 6 7 10 8 8 8 10
17 20 24 24 25 27 25 23 21 20 16 14 10 7 5 4 6 6 6 9 14 21 21 13 9 9 9 9 9 9 8 3 3 5 5 3 4 6 8 8 7 7 7
13 17 22 25 28 25 23 21 20 20 17 15 13 9 7 6 7 8 7 10 13 16 13 18 15 14 12 13 12 10 7 2 3 9 7 3 3 5 7 8 8 8 7
15 16 19 21 25 26 25 21 21 20 13 12 11 10 8 9 12 13 15 15 15 14 13 13 10 9 8 12 10 8 10 5 6 11 7 3 4 4 7 8 8 8 8
21 19 18 18 19 21 23 23 23 17 8 9 16 17 13 12 15 17 20 20 17 14 13 12 8 6 9 10 11 11 10 7 3 5 6 6 7 5 4 6 8 7 7
22 22 19 17 18 21 21 24 22 17 9 11 15 22 18 14 17 21 22 23 20 17 13 12 12 11 12 12 13 11 9 8 5 3 9 4 9 6 4 6 7 8 8
Wind_Direction
289 294 285 281 292 292 298 314 305 292 290 297 296 297 299 301 298 295 291 286 285 286 281 279 249 271 285 261 241 238 233 228 228 224 222 216 209 208 202 197 197 198 194
279 297 292 296 291 301 296 299 304 310 291 290 299 306 306 308 310 304 298 295 290 287 277 277 263 273 284 288 263 245 237 235 226 224 218 218 212 206 203 199 198 202 201
285 292 295 301 312 303 291 296 292 328 326 299 309 320 303 310 307 309 304 304 302 291 283 278 271 269 285 289 282 252 247 234 226 222 219 215 212 210 211 207 207 205 203
277 287 303 306 321 292 298 307 301 314 316 312 312 315 303 299 306 310 310 312 313 310 293 293 295 288 290 296 287 256 244 237 228 222 214 213 209 205 210 211 216 214 208
267 274 290 305 317 307 304 308 306 319 326 318 309 311 304 306 306 310 307 306 303 297 294 297 301 302 302 305 292 250 239 236 228 221 203 202 215 209 204 206 211 212 207
278 266 286 286 303 313 305 302 308 314 319 313 316 312 314 307 306 310 307 302 293 284 296 314 317 318 318 323 313 235 236 226 214 203 205 217 213 206 204 205 206 206 205
281 276 280 302 298 303 298 296 297 312 318 317 322 317 314 302 314 319 302 294 285 283 307 319 325 334 337 340 335 305 266 225 213 211 210 217 215 206 208 206 200 205 202
269 278 288 293 292 295 304 309 305 308 304 314 313 323 331 326 349 319 297 288 278 285 305 315 323 332 341 348 342 341 301 231 224 218 220 223 216 217 209 206 200 202 202
273 291 285 282 283 282 291 310 310 304 298 318 324 279 317 290 321 307 316 297 284 289 304 312 318 323 330 334 329 309 280 273 261 247 240 226 218 211 206 200 195 197 204
286 293 285 276 278 280 276 281 308 317 301 308 320 295 283 272 294 320 335 338 318 308 309 324 330 338 343 342 337 321 296 270 266 245 238 231 224 209 205 210 205 200 206
307 305 277 266 269 272 277 286 299 312 305 304 310 315 320 305 274 254 297 348 7 331 343 11 5 353 348 350 344 336 326 296 273 248 259 204 179 194 205 193 199 200 204
294 322 292 265 277 271 274 285 285 297 298 300 307 306 294 285 268 255 248 129 176 353 39 45 24 16 12 2 358 351 336 279 204 187 169 166 159 156 163 167 158 185 193
276 298 300 279 281 284 272 278 281 292 300 304 297 298 297 292 284 279 259 151 170 173 134 67 42 27 20 13 18 360 9 86 182 182 173 163 172 177 183 189 183 170 182
271 271 280 292 303 296 275 270 283 291 300 294 292 299 310 301 296 292 288 186 177 165 124 114 55 38 26 29 41 44 61 82 152 160 155 156 174 184 187 183 185 194 188
267 266 261 271 286 284 278 279 286 293 289 289 294 315 306 311 305 304 311 248 192 158 127 115 106 46 39 45 51 69 77 100 136 157 153 152 159 161 182 186 179 169 188
257 263 264 269 277 272 264 267 281 282 286 293 307 316 317 325 307 308 305 262 212 150 123 123 78 74 61 66 68 77 84 95 108 140 155 161 142 133 144 172 176 173 167
260 259 261 265 267 267 250 262 272 277 282 293 299 316 324 321 314 298 232 197 190 158 123 97 116 99 85 82 82 83 89 99 104 120 136 146 150 166 155 141 167 185 174
260 260 261 262 262 255 248 261 270 271 276 282 279 294 315 321 297 244 189 208 173 167 145 137 130 116 103 93 92 92 93 94 94 95 147 168 146 143 161 175 147 168 182
264 262 258 259 257 248 250 258 266 269 280 268 267 281 306 338 275 264 200 180 150 153 159 142 134 141 119 109 104 101 100 99 94 88 99 119 144 155 145 167 165 170 180
271 267 260 254 252 250 250 255 261 261 261 257 253 267 291 268 236 234 201 176 161 149 154 142 140 150 135 137 124 120 101 101 94 95 98 108 128 136 159 172 169 164 168
280 272 264 257 255 253 254 255 255 253 253 239 235 239 257 242 226 228 207 178 172 160 157 152 143 162 165 161 162 141 124 116 101 106 106 119 122 132 145 160 163 163 164
291 279 268 259 256 255 255 254 247 247 246 235 222 228 247 219 207 220 210 196 190 174 168 165 167 180 187 180 160 145 139 134 105 140 135 130 128 132 136 143 152 160 167
325 293 280 273 263 256 255 248 242 246 242 230 218 217 228 218 209 213 197 184 188 194 199 185 183 192 193 196 170 159 159 121 115 148 133 125 133 141 144 146 157 169 170
334 314 293 281 276 266 253 240 237 237 232 230 233 233 235 222 207 204 187 180 180 192 202 195 206 205 214 196 190 173 162 131 119 147 123 112 142 138 149 155 156 164 178
327 317 302 288 272 271 257 234 221 202 193 216 230 222 224 225 211 204 186 179 181 190 191 197 212 201 216 204 193 175 164 147 119 185 159 139 154 133 151 159 160 166 177
323 311 295 272 259 252 236 221 188 157 148 260 250 239 229 217 208 198 192 186 185 194 196 204 213 208 198 214 208 201 189 173 137 164 198 155 156 147 146 187 188 186 189